Location: Ladrillo (historical)
(32.8195°N, 117.2231°W)
Time: 22:58:47
(UTC+00:00)

Altair - Pass Details

Date: 27 February 2021
Orbit: 1501 x 1683 km, 47.2° (Epoch: 16 April)

Event Time Altitude Azimuth Distance (km) Brightness Sun altitude
Rises 04:46:53 0° 263° (W) 4,643 10.8 -38.8°
Reaches altitude 10° 04:50:07 10° 270° (W) 3,676 10.1 -39.5°
Maximum altitude 04:58:50 43° 340° (NNW) 2,058 8.2 -41.2°
Enters shadow 05:00:02 42° 358° (N) 2,108 8.2 -41.4°
